User: anonymous   Login
Location: Unspecified
(0.0000°N, 0.0000°E)
Time: 16:45:26
(UTC+00:00)
Language:

N. Korean satellite - Orbit

View from above orbital plane
View from above orbital plane
View from above satellite
View from above satellite

Ground track
Ground track

The orbit data is extracted from the following two-line orbital elements,

1 39026U 12072A   20017.09866328  .00000659  00000-0  26042-4 0  9992
2 39026  97.2173  18.4980 0039238  67.0809 293.4565 15.28284456394034
Epoch (UTC): 17 January 2020 02:22:04
Eccentricity: 0.0039238
inclination: 97.2173°
perigee height: 454 km
apogee height: 508 km
right ascension of ascending node: 18.4980°
argument of perigee: 67.0809°
revolutions per day: 15.28284456
mean anomaly at epoch: 293.4565°
orbit number at epoch: 39403

The dashed part of the orbit path shows where the satellite is in the earth's shadow,  

DLR